This is the latest recevied weather packets stored in our database for station/object KY4LEX. If no packets are shown the sender has not sent any weather packets the latest 10 day(s).
| Time | Temp. | Humidity | Pressure | Rain* | Wind** | Luminosity | Snow |
|---|---|---|---|---|---|---|---|
| 1777400962 | 22.22° C | 76% | 1020.9 hPa | 0 mm | - | 300 W/m² | - |
| 1777400658 | 21.67° C | 78% | 1020.7 hPa | 0 mm | - | 152 W/m² | - |
| 1777400356 | 22.22° C | 77% | 1021.1 hPa | 0 mm | - | 436 W/m² | - |
| 1777400051 | 21.67° C | 79% | 1020.9 hPa | 0 mm | - | 265 W/m² | - |
| 1777399749 | 21.67° C | 79% | 1020.9 hPa | 0 mm | - | 508 W/m² | - |
| 1777399445 | 21.11° C | 81% | 1021.3 hPa | 0 mm | - | 134 W/m² | - |
| 1777399143 | 21.67° C | 80% | 1021.1 hPa | 0 mm | - | 244 W/m² | - |
| 1777398839 | 21.67° C | 78% | 1021.1 hPa | 0 mm | - | 326 W/m² | - |
| 1777398536 | 21.67° C | 81% | 1021.2 hPa | 0 mm | - | 1012 W/m² | - |
| 1777398233 | 21.67° C | 81% | 1021.3 hPa | 0 mm | - | 249 W/m² | - |
| 1777397930 | 21.11° C | 82% | 1021.2 hPa | 0 mm | - | 260 W/m² | - |
| 1777397625 | 21.67° C | 81% | 1021.1 hPa | 0 mm | - | 400 W/m² | - |
| 1777397322 | 21.67° C | 81% | 1021 hPa | 0 mm | - | 323 W/m² | - |
| 1777397019 | 21.67° C | 81% | 1021.2 hPa | 0 mm | - | 303 W/m² | - |
| 1777396716 | 21.11° C | 82% | 1021.4 hPa | 0 mm | - | 223 W/m² | - |
| 1777396412 | 20.56° C | 84% | 1021.4 hPa | 0 mm | - | 648 W/m² | - |
| 1777396109 | 21.11° C | 83% | 1021.7 hPa | 0 mm | - | 247 W/m² | - |
| 1777395805 | 21.11° C | 83% | 1021.6 hPa | 0 mm | - | 337 W/m² | - |
| 1777395500 | 21.11° C | 83% | 1021.3 hPa | 0 mm | - | 357 W/m² | - |
| 1777395198 | 21.11° C | 83% | 1021.8 hPa | 0 mm | - | 371 W/m² | - |
| 1777394895 | 21.67° C | 84% | 1021.7 hPa | 0 mm | - | 368 W/m² | - |
| 1777394590 | 21.11° C | 86% | 1021.4 hPa | 0 mm | - | 409 W/m² | - |
| 1777394288 | 20.56° C | 86% | 1021.4 hPa | 0 mm | - | 572 W/m² | - |
| 1777393984 | 20° C | 88% | 1021.3 hPa | 0 mm | - | 372 W/m² | - |
| 1777393683 | 20° C | 88% | 1021.3 hPa | 0 mm | - | 432 W/m² | - |
* Rain latest hour (hover to see other rain measurements)
** Current wind speed in m/s (hover to see current wind gust speed)